Logansport, IN

10:17 PM EST on February 25, 2017 (GMT -0500)
Logansport Municipal

Weather History for KGGP - January, 2015

Change the Weather History Date:

Wednesday, January 21, 2015

  Actual Average Record
Temperature  
Mean Temperature 34 °F -  
Max Temperature 35 °F 32 °F 60 °F (2017)
Min Temperature 32 °F 13 °F -2 °F (2014)
Degree Days  
Heating Degree Days 32    
Moisture  
Dew Point 32 °F    
Average Humidity 98    
Maximum Humidity 100    
Minimum Humidity 93    
Precipitation  
Precipitation 0.00 in - - ()
Sea Level Pressure  
Sea Level Pressure 30.05 in    
Wind  
Wind Speed 5 mph (West)    
Max Wind Speed 12 mph    
Max Gust Speed -    
Visibility 3 miles    
Events Fog , Rain , Snow    
Averages and records for this station are not official NWS values.
T = Trace of Precipitation, MM = Missing Value Source: NWS Daily Summary

Daily Weather History Graph

Daily Weather History Graph

Search for Another Location

Airport or City:

Trip Planner

Search our weather history database for the weather conditions in past years. The results will help you decide how hot, cold, wet, or windy it might be!

Date:

Astronomy

Jan. 21, 2015 Rise Set
Actual Time 8:04 AM EST 5:49 PM EST
Civil Twilight 7:34 AM EST 6:19 PM EST
Nautical Twilight 7:01 AM EST 6:52 PM EST
Astronomical Twilight 6:28 AM EST 7:25 PM EST
Moon 8:33 AM EST (1/21) 7:37 PM EST (1/21)
Length of Visible Light 10h 44m
Length of Day
9h 45m
New Moon, 2% of the Moon is Illuminated
Jan 21
New Moon
Jan 26
First Quarter
Feb 3
Full
Feb 11
Last Quarter
Feb 18
New

Hourly Weather History & Observations

Time (EST) Temp. Windchill Dew Point Humidity Pressure Visibility Wind Dir Wind Speed Gust Speed Precip Events Conditions
12:15 AM 32.0 °F 27.5 °F 32.0 °F 100% 29.97 in 0.8 mi SW 4.6 mph - N/A   Overcast
12:35 AM 32.0 °F 26.4 °F 32.0 °F 100% 29.98 in 1.0 mi SW 5.8 mph - N/A   Overcast
12:55 AM 32.0 °F 28.7 °F 32.0 °F 100% 29.97 in 0.8 mi SW 3.5 mph - N/A   Overcast
1:15 AM 32.0 °F 27.5 °F 32.0 °F 100% 29.97 in 1.2 mi SW 4.6 mph - N/A   Overcast
1:35 AM 32.0 °F 26.4 °F 32.0 °F 100% 29.98 in 1.5 mi SW 5.8 mph - N/A   Overcast
1:55 AM 32.0 °F 26.4 °F 32.0 °F 100% 29.98 in 0.8 mi WSW 5.8 mph - N/A   Overcast
2:15 AM 32.0 °F 27.5 °F 32.0 °F 100% 29.98 in 0.5 mi WSW 4.6 mph - N/A Fog Fog
2:35 AM 32.0 °F 26.4 °F 32.0 °F 100% 29.98 in 0.8 mi West 5.8 mph - N/A   Overcast
2:55 AM 32.0 °F 25.6 °F 32.0 °F 100% 29.98 in 1.0 mi WSW 6.9 mph - N/A   Overcast
3:15 AM 32.0 °F 25.6 °F 32.0 °F 100% 29.98 in 1.2 mi WSW 6.9 mph - N/A Snow Light Snow
3:35 AM 32.0 °F 26.4 °F 32.0 °F 100% 29.98 in 1.2 mi WSW 5.8 mph - N/A   Overcast
3:55 AM 32.0 °F 25.6 °F 32.0 °F 100% 29.98 in 0.5 mi West 6.9 mph - N/A Fog Fog
4:15 AM 32.0 °F 24.8 °F 32.0 °F 100% 29.98 in 0.2 mi WSW 8.1 mph - N/A Fog Fog
4:35 AM 32.0 °F 23.6 °F 32.0 °F 100% 29.98 in 0.2 mi West 10.4 mph - N/A Fog Fog
4:55 AM 32.0 °F 24.8 °F 32.0 °F 100% 29.98 in 0.5 mi West 8.1 mph - N/A Fog Fog
5:15 AM 32.0 °F 24.2 °F 32.0 °F 100% 29.98 in 0.8 mi West 9.2 mph - N/A   Overcast
5:35 AM 32.0 °F 24.8 °F 32.0 °F 100% 29.98 in 1.0 mi West 8.1 mph - N/A   Overcast
5:55 AM 32.0 °F 27.5 °F 32.0 °F 100% 29.98 in 0.5 mi West 4.6 mph - N/A Fog Fog
6:15 AM 32.0 °F 24.8 °F 32.0 °F 100% 29.99 in 1.0 mi West 8.1 mph - N/A   Overcast
6:35 AM 32.0 °F 25.6 °F 32.0 °F 100% 29.99 in 3.0 mi West 6.9 mph - N/A   Overcast
6:55 AM 32.0 °F 25.6 °F 32.0 °F 100% 29.99 in 3.0 mi WSW 6.9 mph - N/A   Overcast
7:15 AM 32.0 °F 25.6 °F 32.0 °F 100% 29.99 in 2.5 mi SW 6.9 mph - N/A   Overcast
7:35 AM 32.0 °F 25.6 °F 32.0 °F 100% 29.99 in 1.8 mi SW 6.9 mph - N/A   Overcast
7:55 AM 32.0 °F 24.8 °F 32.0 °F 100% 30.01 in 0.2 mi SW 8.1 mph - N/A Fog Fog
8:15 AM 32.0 °F 26.4 °F 32.0 °F 100% 30.01 in 0.2 mi SW 5.8 mph - N/A Fog Fog
8:35 AM 32.0 °F 25.6 °F 32.0 °F 100% 30.01 in 0.2 mi SW 6.9 mph - N/A Fog Fog
8:55 AM 32.0 °F 27.5 °F 32.0 °F 100% 30.01 in 0.2 mi SSW 4.6 mph - N/A Fog Fog
9:15 AM 32.0 °F 28.7 °F 32.0 °F 100% 30.01 in 0.2 mi SW 3.5 mph - N/A Fog Fog
9:35 AM 32.0 °F 28.7 °F 32.0 °F 100% 30.01 in 0.2 mi SSW 3.5 mph - N/A Fog Fog
9:55 AM 32.0 °F - 32.0 °F 100% 30.01 in 0.5 mi Calm Calm - N/A Snow Light Snow
10:15 AM 32.0 °F - 32.0 °F 100% 30.01 in 0.8 mi Calm Calm - N/A Snow Light Snow
10:35 AM 32.0 °F - 32.0 °F 100% 30.01 in 1.0 mi Calm Calm - N/A   Overcast
10:55 AM 32.0 °F - 32.0 °F 100% 30.02 in 1.2 mi Calm Calm - N/A   Overcast
11:15 AM 32.0 °F - 32.0 °F 100% 30.02 in 1.5 mi Calm Calm - N/A   Overcast
11:35 AM 33.8 °F - 33.8 °F 100% 30.01 in 1.8 mi Calm Calm - N/A   Overcast
11:55 AM 33.8 °F 28.6 °F 33.8 °F 100% 30.01 in 2.5 mi SSW 5.8 mph - N/A   Overcast
12:15 PM 35.6 °F 28.0 °F 35.6 °F 100% 30.01 in 5.0 mi WSW 10.4 mph - N/A   Overcast
12:35 PM 35.6 °F 27.5 °F 33.8 °F 93% 30.01 in 7.0 mi WSW 11.5 mph - N/A   Overcast
12:55 PM 33.8 °F 25.3 °F 32.0 °F 93% 30.01 in 7.0 mi West 11.5 mph - N/A   Overcast
1:15 PM 33.8 °F 27.7 °F 32.0 °F 93% 30.01 in 7.0 mi West 6.9 mph - N/A   Overcast
1:35 PM 33.8 °F 28.6 °F 32.0 °F 93% 30.01 in 7.0 mi West 5.8 mph - N/A   Light Drizzle
1:55 PM 33.8 °F 28.6 °F 32.0 °F 93% 30.01 in 5.0 mi West 5.8 mph - N/A   Light Drizzle
2:15 PM 33.8 °F 29.6 °F 32.0 °F 93% 30.02 in 2.5 mi West 4.6 mph - N/A   Drizzle
2:35 PM 33.8 °F 30.8 °F 32.0 °F 93% 30.02 in 3.0 mi West 3.5 mph - N/A Rain Light Rain
2:55 PM 33.8 °F - 32.0 °F 93% 30.03 in 2.0 mi Calm Calm - N/A   Light Drizzle
3:15 PM 33.8 °F - 32.0 °F 93% 30.04 in 1.5 mi Calm Calm - N/A Rain Light Rain
3:35 PM 32.0 °F 28.7 °F 32.0 °F 100% 30.05 in 1.5 mi West 3.5 mph - N/A Snow Light Snow
3:55 PM 32.0 °F 25.6 °F 32.0 °F 100% 30.06 in 1.2 mi West 6.9 mph - N/A Rain Light Rain
4:15 PM 32.0 °F 27.5 °F 32.0 °F 100% 30.07 in 1.0 mi West 4.6 mph - N/A Rain Light Rain
4:35 PM 32.0 °F 26.4 °F 32.0 °F 100% 30.07 in 1.2 mi West 5.8 mph - N/A   Drizzle
4:55 PM 32.0 °F 24.2 °F 32.0 °F 100% 30.09 in 2.5 mi West 9.2 mph - N/A   Light Drizzle
5:15 PM 32.0 °F 24.8 °F 32.0 °F 100% 30.10 in 2.0 mi West 8.1 mph - N/A   Drizzle
5:35 PM 32.0 °F 25.6 °F 32.0 °F 100% 30.11 in 2.0 mi West 6.9 mph - N/A Rain Light Rain
5:55 PM 32.0 °F 26.4 °F 32.0 °F 100% 30.11 in 2.0 mi WNW 5.8 mph - N/A Rain Light Rain
6:15 PM 32.0 °F 27.5 °F 32.0 °F 100% 30.12 in 2.5 mi WNW 4.6 mph - N/A Rain Light Rain
6:35 PM 32.0 °F 27.5 °F 32.0 °F 100% 30.13 in 2.5 mi WNW 4.6 mph - N/A Snow Light Snow
6:55 PM 32.0 °F 27.5 °F 32.0 °F 100% 30.14 in 3.0 mi WNW 4.6 mph - N/A Snow Light Snow
7:15 PM 32.0 °F 27.5 °F 32.0 °F 100% 30.15 in 3.0 mi NW 4.6 mph - N/A Snow Light Snow
7:35 PM 32.0 °F 27.5 °F 32.0 °F 100% 30.16 in 3.0 mi WNW 4.6 mph - N/A Snow Light Snow
7:55 PM 32.0 °F 27.5 °F 32.0 °F 100% 30.17 in 3.0 mi NW 4.6 mph - N/A Snow Light Snow
8:15 PM 32.0 °F 27.5 °F 32.0 °F 100% 30.17 in 4.0 mi NW 4.6 mph - N/A Snow Light Snow
8:35 PM 32.0 °F 27.5 °F 32.0 °F 100% 30.18 in 5.0 mi NW 4.6 mph - N/A   Overcast
8:55 PM 32.0 °F 27.5 °F 32.0 °F 100% 30.19 in 5.0 mi NW 4.6 mph - N/A   Light Drizzle
9:15 PM 32.0 °F 26.4 °F 32.0 °F 100% 30.19 in 7.0 mi NW 5.8 mph - N/A   Overcast
9:35 PM 32.0 °F 28.7 °F 30.2 °F 93% 30.20 in 7.0 mi NW 3.5 mph - N/A   Overcast
9:55 PM 32.0 °F 26.4 °F 30.2 °F 93% 30.20 in 7.0 mi NW 5.8 mph - N/A   Overcast
10:15 PM 32.0 °F 27.5 °F 30.2 °F 93% 30.21 in 7.0 mi WNW 4.6 mph - N/A   Overcast
10:35 PM 32.0 °F 27.5 °F 30.2 °F 93% 30.22 in 7.0 mi WNW 4.6 mph - N/A   Overcast
10:55 PM 32.0 °F 27.5 °F 30.2 °F 93% 30.22 in 7.0 mi WNW 4.6 mph - N/A   Overcast
11:15 PM 32.0 °F 27.5 °F 30.2 °F 93% 30.23 in 7.0 mi WNW 4.6 mph - N/A   Overcast
11:35 PM 32.0 °F 26.4 °F 30.2 °F 93% 30.24 in 10.0 mi WNW 5.8 mph - N/A   Overcast
11:55 PM 32.0 °F 27.5 °F 30.2 °F 93% 30.24 in 10.0 mi WNW 4.6 mph - N/A   Overcast